Regional Weather Roundup
Issued by NWS

Home | Current Version | Previous Version | Text Only | Print | Product List | Glossary On
Versions: 1 2 3 4 5 6 7 8 9 10 11 12 13 14 15 16 17 18 19 20 21 22 23 24 25 26 27 28 29 30 31 32 33 34 35 36 37 38 39 40 41 42 43 44 45 46 47 48 49 50
000
ASUS46 KSEW 020610
RWRWA

WASHINGTON REGIONAL WEATHER ROUNDUP
NATIONAL WEATHER SERVICE SEATTLE WA
1100 PM PDT WED OCT 01 2014

NOTE:"FAIR" INDICATES FEW OR NO CLOUDS BELOW 12,000 FEET WITH NO
SIGNIFICANT WEATHER AND/OR OBSTRUCTIONS TO VISIBILITY.

WAZ505-507>509-020700-
SEATTLE, TACOMA, EVERETT, AND VICINITY

CITY           SKY/WX    TMP DP  RH WIND       PRES   REMARKS
EVERETT        CLOUDY    55  47  74 N3        30.21R
6HR MIN TEMP:  55; 6HR MAX TEMP:  59;

BOEING FIELD   MOCLDY    60  46  59 E3        30.20R
6HR MIN TEMP:  60; 6HR MAX TEMP:  67;

RENTON         CLOUDY    58  48  69 CALM      30.19S
6HR MIN TEMP:  58; 6HR MAX TEMP:  66;

SEATAC AIRPORT CLOUDY    58  45  62 E9        30.21R
6HR MIN TEMP:  57; 6HR MAX TEMP:  64;

JBLM-MCCHORD   CLOUDY    53  48  83 CALM      30.20S
6HR MIN TEMP:  51; 6HR MAX TEMP:  65;

PUYALLUP       NOT AVBL
JBLM-FT LEWIS  MOCLDY    52  47  85 SE8       30.19S
6HR MIN TEMP:  51; 6HR MAX TEMP:  66;

TACOMA NARROWS MOCLDY    55  46  71 S3        30.20S
6HR MIN TEMP:  54; 6HR MAX TEMP:  63;

$$

WAZ001-503-506-510-514-515-020700-
NORTH INTERIOR

CITY           SKY/WX    TMP DP  RH WIND       PRES   REMARKS
BELLINGHAM     PTCLDY    52  47  83 CALM      30.18S
6HR MIN TEMP:  52; 6HR MAX TEMP:  62;

FRIDAY HARBOR  CLOUDY    53  46  77 CALM      30.20R
6HR MIN TEMP:  50; 6HR MAX TEMP:  62;

EASTSOUND      MOCLDY    50  48  93 CALM      30.17S
PORT ANGELES   MOCLDY    55  44  66 W9        30.21R
6HR MIN TEMP:  52; 6HR MAX TEMP:  59;

NAS WHIDBEY    MOCLDY    55  50  83 W8        30.20R
6HR MIN TEMP:  55; 6HR MAX TEMP:  61;

BURLINGTON     MOCLDY    54  50  87 S3        30.19F
$$

WAZ020-022-039-040-504-511-512-020700-
SOUTHWEST INTERIOR

CITY           SKY/WX    TMP DP  RH WIND       PRES   REMARKS
SHELTON        MOCLDY    53  47  79 CALM      30.17S
6HR MIN TEMP:  52; 6HR MAX TEMP:  65;

OLYMPIA        MOCLDY    54  46  74 CALM      30.20S
6HR MIN TEMP:  52; 6HR MAX TEMP:  65;

CHEHALIS       MOCLDY    50  48  93 SW5       30.20F
KELSO          MOCLDY    54  46  76 CALM      30.26S
6HR MIN TEMP:  54; 6HR MAX TEMP:  64;

VANCOUVER      PTCLDY    53  47  79 CALM      30.21R
6HR MIN TEMP:  52; 6HR MAX TEMP:  67;

SCAPPOOSE, OR  PTCLDY    50  47  89 NW3       30.20R
6HR MIN TEMP:  50; 6HR MAX TEMP:  65;

PORTLAND, OR   MOCLDY    58  50  75 CALM      30.21R
6HR MIN TEMP:  57; 6HR MAX TEMP:  67;

$$

WAZ021-516-517-020700-
WASHINGTON COAST

CITY           SKY/WX    TMP DP  RH WIND       PRES   REMARKS
FORKS          MOCLDY    54  51  90 CALM      30.21F FOG
6HR MIN TEMP:  53; 6HR MAX TEMP:  62;

HOQUIAM        CLOUDY    57  51  80 W5        30.21S
6HR MIN TEMP:  57; 6HR MAX TEMP:  62;

ASTORIA, OR    CLOUDY    53  50  89 SE3       30.21F
6HR MIN TEMP:  52; 6HR MAX TEMP:  63;

$$

WAZ019-023-024-040-518-519-020700-
CASCADE MOUNTAINS AND COLUMBIA GORGE

CITY           SKY/WX    TMP DP  RH WIND       PRES   REMARKS
STAMPEDE PASS  NOT AVBL
TROUTDALE, OR  PTCLDY    52  47  83 CALM      30.21R
6HR MIN TEMP:  52; 6HR MAX TEMP:  65;

THE DALLES, OR CLEAR     59  41  51 SW7       30.13S
6HR MIN TEMP:  57; 6HR MAX TEMP:  68;

$$

WAZ026-027-041>044-520-521-020700-
EAST SLOPES

CITY           SKY/WX    TMP DP  RH WIND       PRES   REMARKS
OMAK           PTCLDY    58  29  33 N7G18     30.03R
6HR MIN TEMP:  52; 6HR MAX TEMP:  69;

WENATCHEE      MOCLDY    60  34  37 NW15      30.05F
6HR MIN TEMP:  60; 6HR MAX TEMP:  69;

ELLENSBURG     MOCLDY    56  41  57 NW20      30.09S
6HR MIN TEMP:  55; 6HR MAX TEMP:  66;

YAKIMA         CLOUDY    59  39  47 CALM      30.09S
6HR MIN TEMP:  58; 6HR MAX TEMP:  70;

$$

WAZ028-034-035-020700-
COLUMBIA BASIN

CITY           SKY/WX    TMP DP  RH WIND       PRES   REMARKS
EPHRATA        CLOUDY    60  34  37 W10       30.03S
6HR MIN TEMP:  59; 6HR MAX TEMP:  70;

MOSES LAKE     CLOUDY    62  32  32 VRB3      30.05R
6HR MIN TEMP:  59; 6HR MAX TEMP:  70;

PASCO          MOCLDY    60  44  55 SW7       30.09R
6HR MIN TEMP:  57; 6HR MAX TEMP:  71;

HERMISTON, OR  PTCLDY    57  39  51 SW13      30.09R
6HR MIN TEMP:  54; 6HR MAX TEMP:  70;

$$

WAZ036>038-020700-
NORTHEAST WASHINGTON

CITY           SKY/WX    TMP DP  RH WIND       PRES   REMARKS
SPOKANE GEIGER CLOUDY    54  38  54 SW15      30.01F
6HR MIN TEMP:  54; 6HR MAX TEMP:  61;

SPOKANE FELTS  CLOUDY    56  38  50 CALM      30.02F
6HR MIN TEMP:  56; 6HR MAX TEMP:  63;

FAIRCHILD AFB  CLOUDY    52  37  56 SW16      30.02R
6HR MIN TEMP:  52; 6HR MAX TEMP:  61;

COEURDALENE,ID CLOUDY    54  37  54 S13       30.01F
6HR MIN TEMP:  52; 6HR MAX TEMP:  61;

DEER PARK      MOCLDY    53  38  56 S10       30.01F
6HR MIN TEMP:  52; 6HR MAX TEMP:  60;

$$

WAZ029>033-020700-
SOUTHEAST WASHINGTON

CITY           SKY/WX    TMP DP  RH WIND       PRES   REMARKS
PULLMAN        PTCLDY    43  35  73 CALM      30.10R
6HR MIN TEMP:  42; 6HR MAX TEMP:  59;

LEWISTON, ID   CLEAR     50  38  63 S3        30.08R
6HR MIN TEMP:  50; 6HR MAX TEMP:  67;

WALLA WALLA    CLEAR     56  38  50 S9        30.11R
6HR MIN TEMP:  56; 6HR MAX TEMP:  68;

PENDLETON, OR  CLEAR     51  35  54 S7        30.11R
6HR MIN TEMP:  49; 6HR MAX TEMP:  67;

$$


USA.gov is the U.S. government's official web portal to all federal, state and local government web resources and services.